[Date Prev][Date Next][Thread Prev][Thread Next] - [Date Index][Thread Index][Author Index]

2 Line ISS Keps 9-6



ISS
1 25544U 98067A   04249.61407527  .00013335  00000-0  11630-3 0  6201
2 25544  51.6353 275.1951 0005708 114.4083 339.3230 15.69336687330953
----
Via the sarex mailing list at AMSAT.ORG courtesy of AMSAT-NA.
To unsubscribe, send "unsubscribe sarex" to Majordomo@amsat.org



AMSAT Top AMSAT Home